{"data":{"norad_id":57844,"intl_designator":"2023-141E","name":"STARLINK-30292","alt_names":[],"object_type":"PAYLOAD","status":"ACTIVE","operator":null,"country":"US","launch_date":"2023-09-12","launch_site_code":"AFWTR","launch_vehicle":null,"mission":null,"orbit_class":"UNKNOWN","rcs_meters":null,"size_class":null,"mass_kg":null,"dimensions":null,"purposes":["comms"],"wikipedia_slug":null,"has_3d_model":false,"image_url":null,"decayed_at":null,"tle_current":{"epoch":"2026-09-20T21:56:47.795712Z","epoch_age_seconds":99382,"freshness":"FRESH","line1":"1 57844U 23141E   26263.91444208  .00000532  00000+0  26893-4 0  9991","line2":"2 57844  53.1594  95.4972 0001268  90.3130 269.8018 15.34384665170249","mean_motion":15.34384665,"eccentricity":0.0001268,"inclination_deg":53.1594,"raan_deg":95.4972,"arg_perigee_deg":90.313,"mean_anomaly_deg":269.8018,"bstar":2.6893e-5,"rev_number":17024,"period_min":93.848696017827,"perigee_km":461.88139511651,"apogee_km":463.61624376032,"semimajor_km":6840.8858194384,"source":"CELESTRAK","updated_at":"2026-09-21T09:00:33.712107Z"}}}